This demonstration page uses our WeatherBlox Daily Observations layout. Learn more.

Left ArrowRight Arrow

30.21309, -93.2044

Hourly Observations for March 16, 2015

Temp ( °F °C ) Dew Point ( °F °C ) Humidity (%) Winds ( mph kmh ) Pressure ( in mb ) Visibility ( mi km ) Precip ( " mm )
12:15 am 00:15 Clear 62 16.4 55 12.9 80 80 Calm 30.24 1024 10 16 0.00 0.00
12:35 am 00:35 Clear 61 16.3 55 13 81 81 Calm 30.24 1024 10 16 0.00 0.00
12:55 am 00:55 Clear 61 16 55 12.6 80 80 Calm 30.24 1024 10 16 0.00 0.00
1:15 am 01:15 Clear 59 15.1 54 12.4 84 84 Calm 30.24 1024 10 16 0.00 0.00
1:35 am 01:35 Clear 59 15.2 55 12.6 85 85 NNW 3 6 30.24 1024 10 16 0.00 0.00
1:55 am 01:55 Clear 58 14.7 55 12.6 87 87 Calm 30.24 1024 10 16 0.00 0.00
2:15 am 02:15 Clear 59 15.1 56 13.1 88 88 Calm 30.24 1024 10 16 0.00 0.00
2:35 am 02:35 Clear 60 15.7 56 13.3 86 86 Calm 30.24 1024 10 16 0.00 0.00
2:55 am 02:55 Clear 59 14.8 56 13.3 91 91 Calm 30.24 1024 10 16 0.00 0.00
3:15 am 03:15 Clear 58 14.5 56 13.2 92 92 Calm 30.24 1024 10 16 0.00 0.00
3:35 am 03:35 Clear 58 14.5 56 13.3 93 93 Calm 30.21 1023 10 16 0.00 0.00
3:55 am 03:55 Clear 58 14.4 55 13 91 91 Calm 30.21 1023 10 16 0.00 0.00
4:15 am 04:15 Clear 57 13.7 55 12.8 94 94 Calm 30.21 1023 10 16 0.00 0.00
4:35 am 04:35 Clear 57 13.7 55 13 96 96 Calm 30.21 1023 10 16 0.00 0.00
4:55 am 04:55 Clear 57 14.1 56 13.5 96 96 NNE 3 6 30.21 1023 10 16 0.00 0.00
5:15 am 05:15 Clear 59 15 57 14 94 94 NNE 6 9 30.21 1023 10 16 0.00 0.00
6:00 am 06:00 Mostly Clear 59 15 57 14 94 94 NNE 12 19 30.21 1023 10 16 0.00 0.00
6:45 am 06:45 Mostly Clear 59 15 57 14 94 94 Calm 30.21 1023 10 16 0.00 0.00
7:50 am 07:50 Mostly Cloudy 57 14 55 13 94 94 Calm 30.24 1024 10 16 0.00 0.00
8:55 am 08:55 Mostly Cloudy 61 16 59 15 94 94 Calm 30.27 1025 7 11 0.00 0.00
9:55 am 09:55 Cloudy 64 18 61 16 88 88 NE 3 6 30.27 1025 10 16 0.00 0.00
10:55 am 10:55 Cloudy 66 19 61 16 83 83 Calm 30.27 1025 10 16 0.00 0.00
11:55 am 11:55 Cloudy 70 21 61 16 73 73 Calm 30.27 1025 10 16 0.00 0.00
12:55 pm 12:55 Cloudy 72 22 59 15 65 65 Calm 30.27 1025 10 16 0.00 0.00
1:55 pm 13:55 Cloudy 73 23 57 14 57 57 Calm 30.24 1024 10 16 0.00 0.00
4:50 pm 16:50 Mostly Sunny 77 25 57 14 51 51 Calm 30.15 1021 10 16 0.00 0.00
9:50 pm 21:50 Partly Cloudy 68 20 59 15 73 73 SSW 7 11 30.18 1022 10 16 0.00 0.00
10:15 pm 22:15 Clear 67 19.2 59 15.1 77 77 SSW 6 9 30.18 1022 10 16 0.00 0.00
10:35 pm 22:35 Partly Cloudy 66 18.9 59 15.1 79 79 SSW 3 6 30.18 1022 10 16 0.00 0.00
10:55 pm 22:55 Clear 66 18.7 60 15.5 82 82 SSW 6 9 30.15 1021 10 16 0.00 0.00
11:15 pm 23:15 Clear 66 18.8 60 15.7 82 82 SW 6 9 30.15 1021 10 16 0.00 0.00
11:35 pm 23:35 Clear 66 18.7 61 16 84 84 SW 6 9 30.15 1021 10 16 0.00 0.00
11:55 pm 23:55 Clear 65 18.5 60 15.6 83 83 SW 3 6 30.15 1021 10 16 0.00 0.00

Powered by AerisWeather